Farmington, NM

6:52 PM MST on January 22, 2017 (GMT -0700)
Four Corners Regional

Weather History for KFMN - October, 2013

Change the Weather History Date:

Saturday, October 26, 2013

  Actual Average Record
Temperature  
Mean Temperature 50 °F -  
Max Temperature 64 °F 59 °F 75 °F (2007)
Min Temperature 37 °F 33 °F 23 °F (1997)
Degree Days  
Heating Degree Days 14    
Moisture  
Dew Point 39 °F    
Average Humidity 65    
Maximum Humidity 93    
Minimum Humidity 29    
Precipitation  
Precipitation 0.00 in - - ()
Sea Level Pressure  
Sea Level Pressure 30.25 in    
Wind  
Wind Speed 4 mph (ENE)    
Max Wind Speed 7 mph    
Max Gust Speed -    
Visibility 10 miles    
Events      
Averages and records for this station are not official NWS values.
T = Trace of Precipitation, MM = Missing Value Source: NWS Daily Summary

Daily Weather History Graph

Daily Weather History Graph

Search for Another Location

Airport or City:

Trip Planner

Search our weather history database for the weather conditions in past years. The results will help you decide how hot, cold, wet, or windy it might be!

Date:

Astronomy

Oct. 26, 2013 Rise Set
Actual Time 7:30 AM MDT 6:22 PM MDT
Civil Twilight 7:04 AM MDT 6:48 PM MDT
Nautical Twilight 6:34 AM MDT 7:18 PM MDT
Astronomical Twilight 6:04 AM MDT 7:49 PM MDT
Moon No Moon Rise 1:47 PM MDT (10/26)
Length of Visible Light 11h 44m
Length of Day
10h 51m
Waning Gibbous, 52% of the Moon is Illuminated
Oct 26
Waning Gibbous
Oct 26
Last Quarter
Nov 3
New
Nov 9
First Quarter
Nov 17
Full

Hourly Weather History & Observations

Time (MDT) Temp. Windchill Dew Point Humidity Pressure Visibility Wind Dir Wind Speed Gust Speed Precip Events Conditions
12:53 AM 45.0 °F 42.6 °F 41.0 °F 86% 30.19 in 10.0 mi East 4.6 mph - N/A   Overcast
1:53 AM 44.1 °F 41.5 °F 39.9 °F 85% 30.19 in 10.0 mi East 4.6 mph - N/A   Mostly Cloudy
2:53 AM 44.1 °F 40.8 °F 41.0 °F 89% 30.21 in 10.0 mi ENE 5.8 mph - N/A   Overcast
3:53 AM 45.0 °F - 41.0 °F 86% 30.20 in 10.0 mi Calm Calm - 0.00 in   Overcast
4:53 AM 45.0 °F 42.6 °F 41.0 °F 86% 30.24 in 10.0 mi ESE 4.6 mph - 0.00 in   Mostly Cloudy
5:53 AM 44.1 °F 40.1 °F 39.9 °F 85% 30.26 in 10.0 mi ESE 6.9 mph - 0.00 in   Mostly Cloudy
6:53 AM 39.9 °F 35.8 °F 37.9 °F 93% 30.29 in 10.0 mi NE 5.8 mph - N/A   Partly Cloudy
7:53 AM 39.9 °F 37.8 °F 37.0 °F 89% 30.30 in 10.0 mi NNE 3.5 mph - N/A   Clear
8:53 AM 45.0 °F - 42.1 °F 90% 30.31 in 10.0 mi Calm Calm - N/A   Clear
9:53 AM 48.9 °F - 42.1 °F 77% 30.32 in 10.0 mi ESE 6.9 mph - N/A   Clear
10:53 AM 52.0 °F - 42.1 °F 69% 30.32 in 10.0 mi SE 6.9 mph - N/A   Clear
11:53 AM 55.0 °F - 42.1 °F 62% 30.32 in 10.0 mi SSE 4.6 mph - N/A   Clear
12:53 PM 57.9 °F - 42.1 °F 56% 30.28 in 10.0 mi Calm Calm - N/A   Clear
1:53 PM 61.0 °F - 42.1 °F 50% 30.25 in 10.0 mi Calm Calm - N/A   Clear
2:53 PM 62.1 °F - 42.1 °F 48% 30.22 in 10.0 mi WSW 3.5 mph - N/A   Clear
3:53 PM 64.0 °F - 39.9 °F 41% 30.20 in 10.0 mi WSW 6.9 mph - N/A   Clear
4:53 PM 63.0 °F - 37.0 °F 38% 30.20 in 10.0 mi West 5.8 mph - N/A   Clear
5:53 PM 61.0 °F - 37.0 °F 41% 30.21 in 10.0 mi West 4.6 mph - N/A   Clear
6:53 PM 55.9 °F - 36.0 °F 47% 30.25 in 10.0 mi Calm Calm - N/A   Clear
7:53 PM 55.0 °F - 35.1 °F 47% 30.25 in 10.0 mi Calm Calm - N/A   Clear
8:53 PM 48.9 °F - 34.0 °F 56% 30.26 in 10.0 mi NNE 6.9 mph - N/A   Clear
9:53 PM 46.9 °F - 34.0 °F 61% 30.26 in 10.0 mi NE 4.6 mph - N/A   Clear
10:53 PM 44.1 °F 41.5 °F 34.0 °F 68% 30.25 in 10.0 mi NNE 4.6 mph - N/A   Clear
11:53 PM 44.1 °F 40.1 °F 34.0 °F 68% 30.23 in 10.0 mi ENE 6.9 mph - N/A   Clear